When you browse on this site, cookies collect data to enhance your experience and personalize the content and advertising you see.
Visit our Privacy Policy to learn more. By continuing to use the site, you agree to this use of cookies and data.
  • In Hungary
  • List of Countries
  • For 7 days
  • Water Temperature
  • Satellite Maps
  • Weather Map
  • News
  • Weather Widgets
  • user-avatar
    Login

    Hourly Weather League City

    Today, 23 February, Saturday

    Time Temperature Precipitation Wind Pressure Humidity
    00:00 +21°C° 0 mm 3 mps 759 mmHg 98%
    01:00 +21°C° 0 mm 4 mps 759 mmHg 98%
    02:00 +21°C° 0 mm 4 mps 758 mmHg 97%
    03:00 +22°C° 0 mm 4 mps 758 mmHg 97%
    04:00 +22°C° 0.1 mm 4 mps 758 mmHg 97%
    05:00 +22°C° 0.1 mm 4 mps 758 mmHg 97%
    06:00 +22°C° 0.1 mm 4 mps 758 mmHg 96%
    07:00 +22°C° 0.4 mm 5 mps 759 mmHg 95%
    08:00 +22°C° 0.4 mm 5 mps 759 mmHg 94%
    09:00 +22°C° 0.4 mm 5 mps 760 mmHg 93%
    10:00 +23°C° 0.7 mm 6 mps 760 mmHg 87%
    11:00 +23°C° 0.7 mm 6 mps 760 mmHg 80%
    12:00 +23°C° 0.7 mm 7 mps 761 mmHg 74%
    13:00 +23°C° 0 mm 6 mps 760 mmHg 63%
    14:00 +23°C° 0 mm 6 mps 760 mmHg 53%
    15:00 +23°C° 0 mm 5 mps 760 mmHg 42%
    16:00 +22°C° 0 mm 5 mps 760 mmHg 43%
    17:00 +21°C° 0 mm 4 mps 760 mmHg 44%
    18:00 +20°C° 0 mm 3 mps 761 mmHg 44%
    19:00 +20°C° 0 mm 3 mps 762 mmHg 44%
    20:00 +19°C° 0 mm 3 mps 762 mmHg 43%
    21:00 +19°C° 0 mm 2 mps 763 mmHg 43%
    22:00 +18°C° 0 mm 2 mps 764 mmHg 43%
    23:00 +18°C° 0 mm 3 mps 764 mmHg 43%

    Tomorrow, 24 February, Sunday

    Time Temperature Precipitation Wind Pressure Humidity
    00:00 +18°C° 0 mm 3 mps 764 mmHg 43%
    01:00 +17°C° 0 mm 4 mps 765 mmHg 41%
    02:00 +15°C° 0 mm 5 mps 765 mmHg 40%
    03:00 +15°C° 0 mm 6 mps 765 mmHg 38%
    04:00 +14°C° 0 mm 5 mps 766 mmHg 42%
    05:00 +13°C° 0 mm 5 mps 766 mmHg 45%
    06:00 +13°C° 0 mm 5 mps 767 mmHg 49%
    07:00 +13°C° 0 mm 5 mps 768 mmHg 50%
    08:00 +13°C° 0 mm 5 mps 768 mmHg 51%
    09:00 +13°C° 0 mm 5 mps 769 mmHg 51%
    10:00 +14°C° 0 mm 5 mps 770 mmHg 48%
    11:00 +17°C° 0 mm 4 mps 770 mmHg 44%
    12:00 +18°C° 0 mm 4 mps 770 mmHg 40%
    13:00 +19°C° 0 mm 4 mps 769 mmHg 38%
    14:00 +19°C° 0 mm 4 mps 769 mmHg 36%
    15:00 +20°C° 0 mm 4 mps 768 mmHg 35%
    16:00 +19°C° 0 mm 4 mps 768 mmHg 37%
    17:00 +19°C° 0 mm 4 mps 768 mmHg 40%
    18:00 +18°C° 0 mm 4 mps 768 mmHg 43%
    19:00 +17°C° 0 mm 4 mps 769 mmHg 44%
    20:00 +17°C° 0 mm 4 mps 769 mmHg 45%
    21:00 +15°C° 0 mm 4 mps 769 mmHg 46%
    22:00 +14°C° 0 mm 5 mps 770 mmHg 47%
    23:00 +14°C° 0 mm 5 mps 770 mmHg 49%

    Day after tomorrow, 25 February, Monday

    Time Temperature Precipitation Wind Pressure Humidity
    00:00 +13°C° 0 mm 5 mps 770 mmHg 51%
    01:00 +13°C° 0 mm 5 mps 770 mmHg 52%
    02:00 +12°C° 0 mm 5 mps 769 mmHg 54%
    03:00 +12°C° 0 mm 5 mps 769 mmHg 56%
    04:00 +12°C° 0 mm 5 mps 769 mmHg 57%
    05:00 +10°C° 0 mm 5 mps 770 mmHg 57%
    06:00 +10°C° 0 mm 6 mps 770 mmHg 58%
    07:00 +11°C° 0 mm 6 mps 770 mmHg 57%
    08:00 +11°C° 0 mm 6 mps 771 mmHg 56%
    09:00 +13°C° 0 mm 6 mps 771 mmHg 55%
    10:00 +14°C° 0 mm 6 mps 771 mmHg 55%
    11:00 +15°C° 0 mm 6 mps 771 mmHg 55%
    12:00 +16°C° 0 mm 6 mps 770 mmHg 55%
    13:00 +16°C° 0 mm 6 mps 770 mmHg 57%
    14:00 +16°C° 0 mm 6 mps 769 mmHg 59%
    15:00 +17°C° 0 mm 6 mps 768 mmHg 61%
    16:00 +16°C° 0 mm 6 mps 768 mmHg 64%
    17:00 +16°C° 0 mm 5 mps 768 mmHg 68%
    18:00 +15°C° 0 mm 5 mps 768 mmHg 72%
    19:00 +16°C° 0 mm 5 mps 768 mmHg 73%
    20:00 +16°C° 0 mm 5 mps 768 mmHg 74%
    21:00 +16°C° 0 mm 5 mps 768 mmHg 76%
    22:00 +16°C° 0 mm 5 mps 768 mmHg 77%
    23:00 +17°C° 0 mm 4 mps 768 mmHg 78%

    26 February, Tuesday

    Time Temperature Precipitation Wind Pressure Humidity
    00:00 +18°C° 0 mm 4 mps 767 mmHg 79%
    01:00 +18°C° 0 mm 4 mps 767 mmHg 80%
    02:00 +18°C° 0 mm 3 mps 766 mmHg 81%
    03:00 +18°C° 0 mm 3 mps 766 mmHg 82%
    04:00 +18°C° 0.1 mm 3 mps 766 mmHg 83%
    05:00 +18°C° 0.1 mm 4 mps 766 mmHg 85%
    06:00 +18°C° 0.1 mm 4 mps 766 mmHg 86%
    07:00 +18°C° 0.2 mm 4 mps 766 mmHg 87%
    08:00 +17°C° 0.2 mm 5 mps 766 mmHg 87%
    09:00 +17°C° 0.2 mm 5 mps 767 mmHg 88%
    10:00 +19°C° 0.2 mm 5 mps 766 mmHg 88%
    11:00 +19°C° 0.2 mm 5 mps 766 mmHg 89%
    12:00 +20°C° 0.2 mm 5 mps 766 mmHg 89%
    13:00 +20°C° 0.4 mm 5 mps 765 mmHg 90%
    14:00 +20°C° 0.4 mm 4 mps 764 mmHg 90%
    15:00 +20°C° 0.4 mm 4 mps 764 mmHg 91%
    16:00 +20°C° 0.3 mm 4 mps 764 mmHg 92%
    17:00 +20°C° 0.3 mm 4 mps 764 mmHg 93%
    18:00 +20°C° 0.3 mm 5 mps 764 mmHg 94%
    19:00 +20°C° 0.1 mm 5 mps 764 mmHg 94%
    20:00 +20°C° 0.1 mm 5 mps 764 mmHg 94%
    21:00 +20°C° 0.1 mm 5 mps 764 mmHg 95%
    22:00 +20°C° 1.3 mm 4 mps 764 mmHg 95%
    23:00 +20°C° 1.3 mm 4 mps 764 mmHg 96%

    27 February, Wednesday

    Time Temperature Precipitation Wind Pressure Humidity
    00:00 +20°C° 1.3 mm 3 mps 763 mmHg 97%
    01:00 +20°C° 1.6 mm 3 mps 763 mmHg 97%
    02:00 +20°C° 1.6 mm 2 mps 763 mmHg 97%
    03:00 +21°C° 1.6 mm 1 mps 762 mmHg 98%
    04:00 +21°C° 0.5 mm 1 mps 762 mmHg 98%
    05:00 +21°C° 0.5 mm 1 mps 762 mmHg 98%
    06:00 +18°C° 0.5 mm 0 mps 762 mmHg 98%
    07:00 +19°C° 0 mm 0 mps 763 mmHg 97%
    08:00 +22°C° 0 mm 1 mps 763 mmHg 95%
    09:00 +22°C° 0 mm 1 mps 763 mmHg 94%
    10:00 +21°C° 0.1 mm 0 mps 763 mmHg 92%
    11:00 +21°C° 0.1 mm 0 mps 763 mmHg 90%
    12:00 +22°C° 0.1 mm 0 mps 762 mmHg 87%
    13:00 +22°C° 0.1 mm 0 mps 762 mmHg 84%
    14:00 +25°C° 0.1 mm 1 mps 761 mmHg 81%
    15:00 +26°C° 0.1 mm 1 mps 760 mmHg 78%
    16:00 +25°C° 0.1 mm 1 mps 760 mmHg 80%
    17:00 +25°C° 0.1 mm 2 mps 760 mmHg 82%
    18:00 +25°C° 0.1 mm 2 mps 760 mmHg 83%
    19:00 +24°C° 0 mm 2 mps 761 mmHg 86%
    20:00 +23°C° 0 mm 2 mps 761 mmHg 89%
    21:00 +21°C° 0 mm 2 mps 761 mmHg 91%
    22:00 +21°C° 0 mm 2 mps 761 mmHg 92%
    23:00 +21°C° 0 mm 2 mps 761 mmHg 93%

    28 February, Thursday

    Time Temperature Precipitation Wind Pressure Humidity
    00:00 +21°C° 0 mm 2 mps 760 mmHg 93%
    01:00 +20°C° 0 mm 2 mps 760 mmHg 94%
    02:00 +20°C° 0 mm 2 mps 760 mmHg 95%
    03:00 +20°C° 0 mm 2 mps 760 mmHg 95%
    04:00 +20°C° 0 mm 2 mps 760 mmHg 96%
    05:00 +21°C° 0 mm 1 mps 760 mmHg 97%
    06:00 +21°C° 0 mm 1 mps 760 mmHg 97%
    07:00 +20°C° 0 mm 2 mps 760 mmHg 96%
    08:00 +21°C° 0 mm 2 mps 760 mmHg 95%
    09:00 +21°C° 0 mm 2 mps 761 mmHg 93%
    10:00 +23°C° 0 mm 2 mps 760 mmHg 91%
    11:00 +23°C° 0 mm 2 mps 760 mmHg 88%
    12:00 +24°C° 0 mm 2 mps 760 mmHg 86%
    13:00 +25°C° 0 mm 3 mps 759 mmHg 81%
    14:00 +26°C° 0 mm 4 mps 758 mmHg 77%
    15:00 +26°C° 0 mm 5 mps 758 mmHg 72%
    16:00 +26°C° 0.2 mm 4 mps 758 mmHg 75%
    17:00 +25°C° 0.2 mm 3 mps 758 mmHg 78%
    18:00 +24°C° 0.2 mm 3 mps 758 mmHg 81%
    19:00 +24°C° 0 mm 3 mps 758 mmHg 84%
    20:00 +22°C° 0 mm 3 mps 758 mmHg 86%
    21:00 +21°C° 0 mm 3 mps 759 mmHg 89%
    22:00 +21°C° 0 mm 3 mps 758 mmHg 90%
    23:00 +21°C° 0 mm 2 mps 758 mmHg 92%
    Show more